IV3ONZ Weather Reports


time (UTC)temp
C
wind
direction
speed
KPH
gust
KPH
rain 1hr
cm
rain 24hr
cm
rain mn
cm
humidity
%
barometer
mb
20260506205004 16 178 8.0 16.1 0.00 1.63 1.63 81 1014.4
20260506204503 16 169 8.0 20.9 0.00 1.63 1.63 81 1014.6
20260506204004 16 157 8.0 20.9 0.00 1.63 1.63 81 1014.4
20260506203716 16 157 8.0 20.9 0.00 1.63 1.63 81 1014.5
20260506203003 16 165 6.4 12.9 0.00 1.63 1.63 81 1014.4
20260506202503 16 166 6.4 16.1 0.00 1.63 1.63 81 1014.3
20260506202215 16 161 8.0 16.1 0.00 1.63 1.63 81 1014.2
20260506201504 15 140 6.4 14.5 0.00 1.63 1.63 83 1014.2
20260506201003 15 131 4.8 11.3 0.00 1.63 1.63 89 1014.3
20260506200505 15 143 6.4 22.5 0.00 1.63 1.63 90 1014.4
20260506200005 16 154 8.0 22.5 0.00 1.63 1.63 87 1014.3
20260506195503 15 152 6.4 22.5 0.00 1.65 1.63 86 1014.3
20260506195003 16 142 4.8 11.3 0.00 1.65 1.63 88 1014.2
20260506194504 16 139 6.4 11.3 0.00 1.68 1.63 88 1014.0
20260506194003 16 141 6.4 16.1 0.00 1.68 1.63 88 1014.2
20260506193503 16 142 8.0 16.1 0.00 1.68 1.63 88 1014.0
20260506193003 16 146 6.4 16.1 0.00 1.68 1.63 87 1014.0
20260506192717 16 159 6.4 16.1 0.00 1.68 1.63 88 1013.9
20260506192004 16 169 9.7 24.1 0.00 1.68 1.63 87 1014.0
20260506191504 16 166 9.7 24.1 0.00 1.68 1.63 87 1013.9
20260506191003 16 166 8.0 20.9 0.00 1.68 1.63 87 1013.7
20260506190503 16 162 8.0 16.1 0.00 1.68 1.63 87 1013.6
20260506190005 16 161 8.0 16.1 0.00 1.68 1.63 87 1013.5
20260506185504 16 161 8.0 16.1 0.00 1.68 1.63 87 1013.1
20260506185003 16 161 8.0 16.1 0.00 1.68 1.63 87 1013.1
20260506184503 16 166 8.0 16.1 0.00 1.68 1.63 87 1012.9
20260506184003 16 168 6.4 14.5 0.00 1.68 1.63 87 1013.2
20260506183503 16 155 6.4 12.9 0.00 1.68 1.63 87 1013.2
20260506183004 16 152 6.4 12.9 0.00 1.68 1.63 87 1013.0
20260506182503 16 161 6.4 12.9 0.00 1.68 1.63 87 1013.2
20260506182003 17 169 6.4 12.9 0.00 1.68 1.63 87 1012.9
20260506181503 17 170 6.4 14.5 0.00 1.68 1.63 87 1013.0
20260506181004 16 167 6.4 14.5 0.00 1.68 1.63 88 1013.2
20260506180504 16 162 4.8 11.3 0.00 1.68 1.63 90 1013.1
20260506180005 16 156 4.8 9.7 0.00 1.68 1.63 91 1013.2
20260506175504 16 157 4.8 9.7 0.00 1.68 1.63 91 1012.9
20260506175003 16 156 3.2 6.4 0.00 1.68 1.63 91 1013.0
20260506174503 16 152 3.2 6.4 0.00 1.68 1.63 92 1012.8
20260506174003 16 151 3.2 6.4 0.00 1.68 1.63 92 1012.9
20260506173713 16 153 3.2 6.4 0.03 1.68 1.63 92 1012.9
20260506173004 16 161 3.2 9.7 0.15 1.68 1.63 92 1012.8
20260506172503 16 163 3.2 9.7 0.15 1.68 1.63 92 1012.7
20260506172004 16 176 4.8 16.1 0.15 1.68 1.63 92 1012.7
20260506171714 16 186 6.4 16.1 0.15 1.68 1.63 92 1012.8
20260506171003 16 198 9.7 20.9 0.15 1.68 1.63 92 1012.6
20260506170503 16 201 9.7 20.9 0.15 1.68 1.63 92 1012.6
20260506170006 16 208 8.0 20.9 0.15 1.68 1.63 91 1012.8
20260506165504 16 212 6.4 17.7 0.15 1.68 1.63 91 1012.6
20260506165004 16 207 6.4 17.7 0.15 1.68 1.63 91 1012.8
20260506164503 17 205 6.4 17.7 0.15 1.68 1.63 91 1012.4
20260506164003 17 214 9.7 17.7 0.15 1.68 1.63 90 1012.5
20260506163503 17 179 11.3 17.7 0.10 1.63 1.57 87 1012.6
20260506163216 17 154 9.7 17.7 0.03 1.55 1.55 85 1012.2
20260506162503 18 150 6.4 12.9 0.00 1.52 1.50 82 1012.4
20260506162003 18 140 8.0 14.5 0.00 1.52 1.50 82 1012.5
20260506161715 18 138 8.0 14.5 0.00 1.52 1.50 82 1012.5
20260506161003 18 142 8.0 14.5 0.00 1.52 1.50 82 1012.4
20260506160503 18 146 8.0 14.5 0.00 1.52 1.50 82 1012.5
20260506160214 18 144 8.0 14.5 0.00 1.52 1.50 82 1012.3
20260506155717 18 144 6.4 14.5 0.00 1.52 1.50 82 1012.6
20260506155004 18 141 6.4 12.9 0.00 1.52 1.50 82 1012.6
20260506154503 18 147 6.4 14.5 0.00 1.52 1.50 82 1012.8
20260506154003 18 156 8.0 16.1 0.00 1.52 1.50 82 1012.8
20260506153504 18 148 8.0 16.1 0.00 1.52 1.50 82 1013.0
20260506153003 18 144 8.0 17.7 0.00 1.52 1.50 82 1013.0
20260506152503 18 137 9.7 17.7 0.00 1.52 1.50 82 1012.8
20260506152213 18 135 9.7 17.7 0.00 1.52 1.50 82 1012.8
20260506151503 18 143 9.7 16.1 0.00 1.52 1.50 82 1013.0
20260506151214 18 146 8.0 16.1 0.00 1.52 1.50 82 1013.1
20260506150503 18 150 6.4 12.9 0.00 1.52 1.50 83 1013.2
20260506150004 17 156 8.0 16.1 0.00 1.52 1.50 83 1013.3
20260506145503 17 157 8.0 16.1 0.00 1.52 1.50 83 1013.2
20260506145003 18 144 8.0 16.1 0.00 1.52 1.50 83 1013.5
20260506144503 18 134 8.0 12.9 0.00 1.55 1.50 84 1013.4
20260506144003 18 125 8.0 12.9 0.00 1.57 1.50 83 1013.4
20260506143504 18 119 8.0 14.5 0.00 1.57 1.50 84 1013.4
20260506143003 17 129 6.4 14.5 0.00 1.60 1.50 84 1013.5
20260506142504 18 145 6.4 11.3 0.00 1.60 1.50 85 1013.4
20260506142004 17 143 6.4 11.3 0.00 1.63 1.50 86 1013.5
20260506141503 17 131 6.4 11.3 0.00 1.63 1.50 87 1013.5
20260506141004 17 126 4.8 11.3 0.00 1.65 1.50 87 1013.7
20260506140717 17 129 4.8 9.7 0.00 1.65 1.50 88 1013.4
20260506140215 17 135 4.8 11.3 0.00 1.68 1.50 88 1013.5
20260506135503 16 137 4.8 11.3 0.00 1.70 1.50 88 1013.8
20260506135004 16 133 3.2 6.4 0.00 1.70 1.50 88 1013.7
20260506134504 16 128 3.2 6.4 0.00 1.70 1.50 88 1013.6
20260506134003 16 124 3.2 4.8 0.00 1.70 1.50 88 1013.7
20260506133503 16 110 3.2 6.4 0.00 1.70 1.50 89 1013.8
20260506133003 16 108 3.2 6.4 0.00 1.70 1.50 88 1014.0
20260506132503 16 109 1.6 6.4 0.00 1.75 1.50 89 1014.1
20260506132003 16 114 3.2 6.4 0.00 1.75 1.50 89 1013.9
20260506131503 16 124 3.2 6.4 0.00 1.75 1.50 89 1014.2
20260506131215 16 134 3.2 9.7 0.00 1.75 1.50 89 1014.2
20260506130503 16 145 4.8 11.3 0.00 1.75 1.50 88 1014.2
20260506130216 16 144 4.8 11.3 0.00 1.75 1.50 88 1014.0
20260506125503 17 152 6.4 14.5 0.00 1.75 1.50 88 1014.3
20260506125003 16 164 8.0 14.5 0.00 1.75 1.50 87 1014.4
20260506124503 16 166 6.4 14.5 0.00 1.75 1.50 88 1014.3
20260506124004 17 157 6.4 14.5 0.00 1.75 1.50 88 1014.4
20260506123503 16 158 8.0 14.5 0.03 1.75 1.50 87 1014.3
20260506123003 16 163 8.0 16.1 0.10 1.75 1.50 87 1014.2
20260506122717 16 165 8.0 22.5 0.10 1.75 1.50 88 1014.4
20260506122003 16 168 9.7 22.5 0.10 1.75 1.50 89 1014.2
20260506121503 16 158 8.0 17.7 0.10 1.75 1.50 91 1014.2
20260506121003 16 150 6.4 17.7 0.10 1.75 1.50 92 1014.3
20260506120504 15 154 4.8 11.3 0.10 1.75 1.50 92 1014.4
20260506120005 15 149 4.8 9.7 0.10 1.75 1.50 92 1014.3
20260506115504 15 149 4.8 11.3 0.10 1.75 1.50 92 1014.3
20260506115003 15 148 4.8 11.3 0.10 1.75 1.50 92 1014.4
20260506114503 15 142 4.8 11.3 0.10 1.75 1.50 92 1014.2
20260506114005 15 141 4.8 11.3 0.10 1.75 1.50 91 1014.3
20260506113506 15 140 6.4 14.5 0.10 1.73 1.47 91 1014.4
20260506113003 15 138 8.0 14.5 0.03 1.65 1.40 90 1014.3
20260506112503 15 138 8.0 14.5 0.03 1.65 1.40 90 1014.5
20260506112003 15 142 8.0 14.5 0.03 1.68 1.40 90 1014.4
20260506111503 15 147 6.4 11.3 0.03 1.68 1.40 91 1014.4
20260506111004 15 146 4.8 9.7 0.03 1.70 1.40 91 1014.5
20260506110503 15 151 4.8 11.3 0.03 1.70 1.40 92 1014.4
20260506110004 15 146 4.8 12.9 0.03 1.70 1.40 92 1014.4
20260506105503 15 143 4.8 12.9 0.03 1.70 1.40 92 1014.5
20260506105004 15 152 6.4 12.9 0.03 1.70 1.40 92 1014.6
20260506104503 15 147 6.4 12.9 0.03 1.70 1.40 92 1014.8
20260506104003 15 138 6.4 12.9 0.03 1.70 1.40 92 1014.7
20260506103504 15 140 6.4 14.5 0.00 1.70 1.37 92 1014.4
20260506103003 15 144 8.0 17.7 0.00 1.70 1.37 92 1014.6
20260506102503 15 141 9.7 17.7 0.03 1.73 1.37 93 1014.9
20260506102003 15 135 9.7 14.5 0.03 1.73 1.37 93 1014.7
20260506101503 15 133 8.0 16.1 0.03 1.73 1.37 93 1014.6
20260506101217 15 137 9.7 17.7 0.03 1.73 1.37 93 1014.8
20260506100503 15 136 11.3 17.7 0.03 1.73 1.37 92 1014.8
20260506100005 15 132 11.3 17.7 0.03 1.73 1.37 92 1014.8
20260506095503 15 131 9.7 17.7 0.03 1.73 1.37 92 1014.8
20260506095003 15 139 8.0 16.1 0.03 1.73 1.37 92 1014.7
20260506094503 15 139 8.0 16.1 0.03 1.73 1.37 92 1014.9
20260506094003 15 135 8.0 16.1 0.03 1.73 1.37 93 1014.9
20260506093503 15 136 8.0 16.1 0.03 1.73 1.37 93 1015.0
20260506093216 15 138 9.7 17.7 0.03 1.73 1.37 93 1015.1
20260506092503 15 136 11.3 25.7 0.03 1.70 1.35 92 1014.9
20260506092004 15 133 11.3 25.7 0.05 1.70 1.35 92 1015.0
20260506091503 15 139 11.3 22.5 0.05 1.70 1.35 92 1014.9
20260506091003 15 143 11.3 22.5 0.08 1.70 1.35 93 1014.8
20260506090503 15 137 11.3 22.5 0.10 1.70 1.35 93 1015.0
20260506090214 15 137 9.7 22.5 0.10 1.70 1.35 93 1014.8
20260506085503 15 146 9.7 20.9 0.10 1.70 1.35 94 1014.9
20260506085214 15 145 9.7 20.9 0.15 1.70 1.35 94 1014.8
20260506084503 15 137 9.7 22.5 0.15 1.70 1.35 95 1014.9
20260506084003 15 137 9.7 22.5 0.18 1.70 1.35 95 1014.7
20260506083713 15 135 9.7 16.1 0.20 1.70 1.35 95 1014.5
20260506083004 15 139 9.7 17.7 0.20 1.68 1.35 95 1014.8
20260506082503 15 139 11.3 22.5 0.20 1.68 1.35 95 1014.8
20260506082003 15 138 11.3 22.5 0.20 1.65 1.32 95 1014.7
20260506081503 15 137 9.7 20.9 0.23 1.65 1.32 95 1014.4
20260506081003 15 143 8.0 20.9 0.25 1.63 1.30 96 1014.6
20260506080716 15 144 9.7 20.9 0.28 1.63 1.30 96 1014.7
20260506080214 15 145 9.7 20.9 0.28 1.60 1.27 95 1014.4
20260506073503 15 159 8.0 16.1 0.28 1.50 1.14 94 1014.6
20260506073003 15 164 9.7 16.1 0.28 1.47 1.12 94 1014.9
20260506072503 15 165 8.0 16.1 0.28 1.47 1.12 94 1014.7
20260506072213 15 163 8.0 14.5 0.30 1.47 1.12 94 1014.8
20260506071503 15 148 6.4 12.9 0.30 1.42 1.09 93 1014.8
20260506071004 15 147 4.8 12.9 0.28 1.37 1.04 93 1014.6
20260506070503 15 151 3.2 11.3 0.25 1.37 1.02 93 1014.8
20260506062004 15 114 1.6 6.4 0.38 1.12 0.79 94 1014.9
20260506061504 15 101 0.0 1.6 0.69 1.12 0.79 94 1014.6
20260506061003 15 0 0.0 0.0 0.76 1.12 0.76 94 1014.7
20260506060504 15 0 0.0 0.0 0.76 1.12 0.76 94 1014.6
20260506051003 15 104 6.4 11.3 0.00 0.33 0.00 86 1014.2
20260506050503 15 101 6.4 12.9 0.00 0.33 0.00 86 1014.0
20260506045003 15 97 4.8 12.9 0.00 0.33 0.00 86 1014.1
20260506044504 15 104 4.8 9.7 0.00 0.33 0.00 86 1014.2
20260506044003 15 107 4.8 9.7 0.00 0.33 0.00 87 1014.2
20260506043503 15 110 4.8 9.7 0.00 0.33 0.00 87 1014.3
20260506043003 15 105 4.8 9.7 0.00 0.33 0.00 86 1014.2
20260506042503 15 100 3.2 4.8 0.00 0.33 0.00 87 1014.3
20260506042215 15 106 3.2 6.4 0.00 0.33 0.00 88 1014.3
20260506041503 15 112 3.2 6.4 0.00 0.33 0.00 88 1014.3
20260506041004 14 124 3.2 6.4 0.00 0.33 0.00 89 1014.3
20260506040504 14 116 3.2 6.4 0.00 0.33 0.00 89 1014.4
20260506040004 14 100 1.6 6.4 0.00 0.33 0.00 88 1014.2
20260506035504 14 97 1.6 6.4 0.00 0.33 0.00 88 1014.4
20260506035003 15 91 3.2 9.7 0.00 0.33 0.00 88 1014.4
20260506034503 15 84 3.2 9.7 0.00 0.33 0.00 87 1014.4
20260506034004 15 82 3.2 6.4 0.00 0.33 0.00 87 1014.4
20260506033717 15 86 3.2 6.4 0.00 0.33 0.00 86 1014.5
20260506033004 15 107 3.2 6.4 0.00 0.33 0.00 87 1014.7
20260506032503 15 97 3.2 9.7 0.00 0.33 0.00 87 1014.7
20260506032003 15 97 4.8 9.7 0.00 0.33 0.00 87 1014.7
20260506031713 15 104 4.8 9.7 0.00 0.33 0.00 87 1014.9
20260506031003 15 116 3.2 4.8 0.00 0.33 0.00 88 1014.9
20260506030503 15 110 3.2 4.8 0.00 0.33 0.00 87 1014.7
20260506030217 15 110 3.2 4.8 0.00 0.33 0.00 87 1014.9
20260506025503 14 110 3.2 6.4 0.00 0.33 0.00 88 1014.7
20260506025004 14 117 3.2 11.3 0.00 0.33 0.00 88 1014.9
20260506024716 14 118 4.8 11.3 0.00 0.33 0.00 88 1014.7
20260506024003 15 107 4.8 9.7 0.00 0.33 0.00 88 1014.9
20260506023503 15 103 3.2 6.4 0.00 0.33 0.00 88 1015.1
20260506023006 15 98 4.8 12.9 0.00 0.33 0.00 87 1015.0
20260506022713 15 95 4.8 12.9 0.00 0.33 0.00 87 1015.1
20260506022216 15 90 4.8 12.9 0.00 0.33 0.00 87 1015.4
20260506021503 14 98 1.6 9.7 0.00 0.33 0.00 88 1015.4
20260506021003 14 86 1.6 4.8 0.00 0.33 0.00 89 1015.4
20260506020503 14 74 1.6 3.2 0.00 0.33 0.00 89 1015.4
20260506020004 14 76 1.6 3.2 0.00 0.33 0.00 89 1015.2
20260506015503 14 87 0.0 3.2 0.00 0.33 0.00 89 1015.3
20260506015214 14 90 1.6 3.2 0.00 0.33 0.00 89 1015.4
20260506014503 14 112 1.6 4.8 0.00 0.33 0.00 88 1015.2
20260506014215 14 117 3.2 4.8 0.00 0.33 0.00 88 1015.4
20260506013713 14 114 3.2 4.8 0.00 0.33 0.00 88 1015.2
20260506013003 14 117 3.2 4.8 0.00 0.33 0.00 88 1015.3
20260506012503 14 116 1.6 4.8 0.00 0.33 0.00 90 1015.1
20260506012003 14 66 0.0 3.2 0.00 0.33 0.00 90 1015.2
20260506011503 14 70 1.6 3.2 0.00 0.33 0.00 90 1015.3
20260506011218 14 73 1.6 3.2 0.00 0.33 0.00 89 1015.3
20260506010503 14 101 1.6 3.2 0.00 0.33 0.00 89 1015.0
20260506010004 15 107 1.6 4.8 0.00 0.33 0.00 89 1015.3
20260506005503 15 120 1.6 4.8 0.00 0.33 0.00 88 1015.2
20260506005003 15 128 3.2 6.4 0.00 0.33 0.00 87 1015.2
20260506004504 15 125 3.2 6.4 0.00 0.33 0.00 88 1015.2
20260506004004 15 137 3.2 9.7 0.00 0.33 0.00 88 1015.1
20260506003503 15 155 4.8 9.7 0.00 0.33 0.00 87 1015.3
20260506003003 15 164 3.2 9.7 0.00 0.33 0.00 87 1015.2
20260506002714 15 159 3.2 6.4 0.00 0.33 0.00 87 1015.2
20260506002003 15 144 3.2 6.4 0.00 0.33 0.00 87 1015.2
20260506001503 15 145 3.2 6.4 0.00 0.33 0.00 87 1015.3
20260506001003 15 153 3.2 11.3 0.00 0.33 0.00 87 1015.0
20260506000503 15 153 3.2 11.3 0.00 0.33 0.00 87 1015.3
20260506000008 15 149 4.8 11.3 0.00 0.33 0.00 87 1015.2
20260505235504 15 145 4.8 11.3 0.00 0.33 0.33 87 1015.5
20260505235003 15 142 4.8 11.3 0.00 0.33 0.33 87 1015.5
20260505234504 15 145 3.2 9.7 0.00 0.33 0.33 86 1015.5
20260505234004 15 150 4.8 9.7 0.00 0.33 0.33 86 1015.4
20260505233503 15 155 4.8 9.7 0.00 0.33 0.33 86 1015.6
20260505233003 15 152 4.8 11.3 0.00 0.33 0.33 86 1015.7
20260505232503 15 154 4.8 11.3 0.00 0.33 0.33 86 1015.8
20260505232004 15 156 4.8 11.3 0.00 0.33 0.33 86 1015.8
20260505231716 15 157 6.4 12.9 0.00 0.33 0.33 85 1015.8
20260505231003 15 155 6.4 12.9 0.00 0.33 0.33 86 1015.8
20260505230503 15 154 6.4 12.9 0.00 0.33 0.33 86 1016.0
20260505230215 15 152 8.0 16.1 0.00 0.33 0.33 85 1016.1
20260505225504 15 159 9.7 22.5 0.00 0.33 0.33 85 1016.0
20260505225003 15 158 9.7 22.5 0.00 0.33 0.33 86 1015.8
20260505224503 15 152 8.0 22.5 0.00 0.33 0.33 86 1015.8
20260505224003 15 153 8.0 16.1 0.00 0.33 0.33 86 1016.0
20260505223503 15 147 8.0 16.1 0.00 0.33 0.33 87 1016.0
20260505223004 15 143 8.0 16.1 0.00 0.33 0.33 87 1016.0
20260505222503 15 141 6.4 12.9 0.00 0.33 0.33 88 1015.9
20260505222003 15 136 6.4 12.9 0.00 0.33 0.33 88 1016.2
20260505221717 14 134 6.4 12.9 0.00 0.33 0.33 88 1016.2
20260505221003 14 135 4.8 11.3 0.00 0.33 0.33 89 1016.1
20260505220503 14 133 4.8 9.7 0.00 0.33 0.33 89 1016.1
20260505220215 14 134 4.8 9.7 0.00 0.33 0.33 89 1016.2
20260505215503 14 132 3.2 6.4 0.00 0.33 0.33 89 1016.5
20260505215003 14 122 3.2 6.4 0.00 0.33 0.33 89 1016.3
20260505214714 14 121 3.2 6.4 0.00 0.33 0.33 89 1016.1
20260505214004 14 122 3.2 9.7 0.00 0.33 0.33 89 1016.2
20260505213503 14 127 4.8 11.3 0.00 0.33 0.33 90 1016.3
20260505213004 14 130 4.8 11.3 0.00 0.33 0.33 90 1016.4
20260505212503 14 139 6.4 11.3 0.00 0.33 0.33 91 1016.3
20260505212214 14 141 6.4 11.3 0.00 0.33 0.33 91 1016.2
20260505211503 14 139 4.8 9.7 0.00 0.33 0.33 91 1016.3
20260505211215 14 138 3.2 6.4 0.00 0.33 0.33 92 1016.3
20260505210713 14 135 3.2 6.4 0.00 0.33 0.33 92 1016.5
20260505210004 14 134 1.6 4.8 0.00 0.33 0.33 92 1016.5
20260505205714 14 135 1.6 4.8 0.03 0.33 0.33 92 1016.6
20260505205217 14 128 1.6 3.2 0.03 0.33 0.33 92 1016.6